Weather History for Douglas, WY

Change the Weather History Date:

Friday, November 30, 2012

  Actual Average Record
Temperature  
Mean Temperature 46 °F 27 °F  
Max Temperature 59 °F 39 °F 67 °F (1999)
Min Temperature 33 °F 14 °F -11 °F (2004)
Degree Days  
Heating Degree Days 19 38  
Month to date heating degree days 729 956  
Since 1 July heating degree days 1499 1822  
Cooling Degree Days 0 0  
Month to date cooling degree days 0 0  
Year to date cooling degree days 831 486  
Moisture  
Dew Point 27 °F    
Average Humidity 50    
Maximum Humidity 69    
Minimum Humidity 31    
Precipitation  
Precipitation 0.00 in 0.01 in 0.03 in (2011)
Month to date precipitation 0.18 0.65  
Year to date precipitation 5.26 12.99  
Sea Level Pressure  
Sea Level Pressure 29.84 in    
Wind  
Wind Speed 10 mph (WSW)    
Max Wind Speed 35 mph    
Max Gust Speed 41 mph    
Visibility 10 miles    
Events      
T = Trace of Precipitation, MM = Missing Value Source: NWS Daily Summary

Daily Weather History Graph

Daily Weather History Graph

Search for Another Location

Airport:

Trip Planner

Search our weather history database for the weather conditions in past years. The results will help you decide how hot, cold, wet, or windy it might be!

Date:

Astronomy

Nov. 30, 2012 Rise Set
Actual Time 7:11 AM MST 4:28 PM MST
Civil Twilight 6:40 AM MST 5:00 PM MST
Nautical Twilight 6:05 AM MST 5:35 PM MST
Astronomical Twilight 5:31 AM MST 6:09 PM MST
Moon 6:26 PM MST (11/30) 8:45 AM MST (11/30)
Length of Visible Light 10h 20m
Length of Day
9h 16m
Waning Gibbous, 96% of the Moon is Illuminated
Nov 30
Waning Gibbous
Dec 6
Last Quarter
Dec 13
New
Dec 19
First Quarter
Dec 28
Full

Hourly Weather History & Observations

Time (MST) Temp. Windchill Dew Point Humidity Pressure Visibility Wind Dir Wind Speed Gust Speed Precip Events Conditions
12:53 AM 34.0 °F - 24.1 °F 67% 29.96 in 10.0 mi Calm Calm - N/A   Clear
1:53 AM 36.0 °F 31.1 °F 25.0 °F 64% 29.95 in 10.0 mi SE 5.8 mph - N/A   Clear
2:53 AM 37.9 °F - 25.0 °F 60% 29.94 in 10.0 mi Calm Calm - N/A   Clear
3:53 AM 36.0 °F 30.3 °F 24.1 °F 62% 29.94 in 10.0 mi SSW 6.9 mph - N/A   Clear
4:53 AM 42.1 °F 37.7 °F 25.0 °F 51% 29.94 in 10.0 mi SW 6.9 mph - N/A   Clear
5:53 AM 37.9 °F 35.5 °F 25.0 °F 60% 29.96 in 10.0 mi NNE 3.5 mph - N/A   Clear
6:53 AM 46.0 °F 43.1 °F 25.0 °F 44% 29.94 in 10.0 mi NW 5.8 mph - N/A   Clear
7:53 AM 45.0 °F 43.5 °F 26.1 °F 48% 29.96 in 10.0 mi ESE 3.5 mph - N/A   Clear
8:53 AM 50.0 °F - 28.0 °F 43% 29.94 in 10.0 mi WSW 13.8 mph 19.6 mph N/A   Clear
9:53 AM 52.0 °F - 28.9 °F 41% 29.87 in 10.0 mi WSW 23.0 mph 28.8 mph N/A   Clear
10:53 AM 54.0 °F - 30.0 °F 40% 29.85 in 10.0 mi WSW 26.5 mph 41.4 mph N/A   Clear
11:53 AM 55.9 °F - 28.9 °F 36% 29.81 in 10.0 mi SW 18.4 mph 32.2 mph N/A   Clear
12:53 PM 57.9 °F - 28.9 °F 33% 29.80 in 10.0 mi West 10.4 mph 24.2 mph N/A   Clear
1:53 PM 59.0 °F - 28.9 °F 32% 29.77 in 10.0 mi West 17.3 mph - N/A   Partly Cloudy
2:53 PM 55.9 °F - 28.9 °F 36% 29.74 in 10.0 mi West 13.8 mph 21.9 mph N/A   Clear
3:53 PM 54.0 °F - 28.9 °F 38% 29.76 in 10.0 mi West 9.2 mph - N/A   Clear
4:53 PM 51.1 °F - 28.0 °F 41% 29.76 in 10.0 mi SSW 6.9 mph - N/A   Clear
5:53 PM 48.0 °F - 27.0 °F 44% 29.78 in 10.0 mi Calm Calm - N/A   Clear
6:53 PM 50.0 °F - 27.0 °F 41% 29.75 in 10.0 mi Calm Calm - N/A   Clear
7:53 PM 52.0 °F - 27.0 °F 38% 29.74 in 10.0 mi WSW 11.5 mph 20.7 mph N/A   Clear
8:53 PM 48.0 °F - 27.0 °F 44% 29.75 in 10.0 mi South 5.8 mph - N/A   Clear
9:53 PM 52.0 °F - 28.0 °F 40% 29.74 in 10.0 mi West 19.6 mph - N/A   Clear
10:53 PM 50.0 °F - 28.0 °F 43% 29.73 in 10.0 mi West 12.7 mph 20.7 mph N/A   Clear
11:53 PM 51.1 °F - 28.0 °F 41% 29.72 in 10.0 mi West 11.5 mph - N/A   Clear